EHI
0 0 0 0 0 0 0 0 0 0 0 0 0 0 0 0 0 0 0 0 0 0 0 0 0 0 0 0 0 0 0 0 0 0 0 0 0 0 0 0 0 0 0
0 0 0 0 0 0 0 0 0 0 0 0 0 0 0 0 0 0 0 0 0 0 0 0 0 0 0 0 0 0 0 0 0 0 0 0 0 0 0 0 0 0 0
0 0 0 0 0 0 0 0 0 0 0 0 0 0 0 0 0 0 0 0 0 0 0 0 0 0 0 0 0 0 0 0 0 0 0 0 0 0 0 0 0 0 0
0 0 0 0 0 0 0 0 0 0 0 0 0 0 0 0 0 0 0 0 0 0 0 0 0 0 0 0 0 0 0 0 0 0 0 0 0 0 0 0 0 0 0
0 0 0 0 0 0 0 0 0 0 0 0 0 0 0 0 0 0 0 0 0 0 0 0 0 0 0 0 0 0 0 0 0 0 0 0 0 0 0 0 0 0 0
0 0 0 0 0 0 0 0 0 0 0 0 0 0 0 0 0 0 0 0 0 0 0 0 0 0 0 0 0 0 0 0 0 0 0 0 0 0 0 0 0 0 0
0 0 0 0 0 0 0 0 0 0 0 0 0 0 0 0 0 0 0 0 0 0 0 0 0 0 0 0 0 0 0 0 0 0 0 0 0 0 0 0 0 0 0
0 0 0 0 0 0 0 0 0 0 0 0 0 0 0 0 0 0 0 0 0 0 0 0 0 0 0 0 0 0 0 0 0 0 0 0 0 0 0 0 0 0 0
0 0 0 0 0 0 0 0 0 0 0 0 0 0 0 0 0 0 0 0 0 0 0 0 0 0 0 0 0 0 0 0 0 0 0 0 0 0 0 0 0 0 0
0 0 0 0 0 0 0 0 0 0 0 0 0 0 0 0 0 0 0 0 0 0 0 0 0 0 0 0 0 0 0 0 0 0 0 0 0 0 0 0 0 0 0
0 0 0 0 0 0 0 0 0 0 0 0 0 0 0 0 0 0 0 0 0 0 0 0 0 0 0 0 0 0 0 0 0 0 0 0 0 0 0 0 0 0 0
0 0 0 0 0 0 0 0 0 0 0 0 0 0 0 0 0 0 0 0 0 0 0 0 0 0 0 0 0 0 0 0 0 0 0 0 0 0 0 0 0 0 0
0 0 0 0 0 0 0 0 0 0 0 0 0 0 0 0 0 0 0 0 0 0 0 0 0 0 0 0 0 0 0 0 0 0 0 0 0 0 0 0 0 0 0
0 0 0 0 0 0 0 0 0 0 0 0 0 0 0 0 0 0 0 0 0 0 0 0 0 0 0 0 0 0 0 0 0 0 0 0 0 0 0 0 0 0 0
0 0 0 0 0 0 0 0 0 0 0 0 0 0 0 0 0 0 0 0 0 0 0 0 0 0 0 0 0 0 0 0 0 0 0 0 0 0 0 0 0 0 0
0 0 0 0 0 0 0 0 0 0 0 0 0 0 0 0 0 0 0 0 0 0 0 0 0 0 0 0 0 0 0 0 0 0 0 0 0 0 0 0 0 0 0
0 0 0 0 0 0 0 0 0 0 0 0 0 0 0 0 0 0 0 0 0 0 0 0 0 0 0 0 0 0 0 0 0 0 0 0 0 0 0 0 0 0 0
0 0 0 0 0 0 0 0 0 0 0 0 0 0 0 0 0 0 0 0 0 0 0 0 0 0 0 0 0 0 0 0 0 0 0 0 0 0 0 0 0 0 0
0 0 0 0 0 0 0 0 0 0 0 0 0 0 0 0 0 0 0 0 0 0 0 0 0 0 0 0 0 0 0 0 0 0 0 0 0 0 0 0 0 0 0
0 0 0 0 0 0 0 0 0 0 0 0 0 0 0 0 0 0 0 0 0 0 0 0 0 0 0 0 0 0 0 0 0 0 0 0 0 0 0 0 0 0 0
0 0 0 0 0 0 0 0 0 0 0 0 0 0 0 0 0 0 0 0 0 0 0 0 0 0 0 0 0 0 0 0 0 0 0 0 0 0 0 0 0 0 0
0 0 0 0 0 0 0 0 0 0 0 0 0 0 0 0 0 0 0 0 0 0 0 0 0 0 0 0 0 0 0 0 0 0 0 0 0 0 0 0 0 0 0
0 0 0 0 0 0 0 0 0 0 0 0 0 0 0 0 0 0 0 0 0 0 0 0 0 0 0 0 0 0 0 0 0 0 0 0 0 0 0 0 0 0 0
0 0 0 0 0 0 0 0 0 0 0 0 0 0 0 0 0 0 0 0 0 0 0 0 0 0 0 0 0 0 0 0 0 0 0 0 0 0 0 0 0 0 0
0 0 0 0 0 0 0 0 0 0 0 0 0 0 0 0 0 0 0 0 0 0 0 0 0 0 0 0 0 0 0 0 0 0 0 0 0 0 0 0 0 0 0
0 0 0 0 0 0 0 0 0 0 0 0 0 0 0 0 0 0 0 0 0 0 0 0 0 0 0 0 0 0 0 0 0 0 0 0 0 0 0 0 0 0 0
Wind_Speed
5 5 5 4 3 3 2 2 2 1 1 1 1 1 1 1 1 1 2 2 3 3 3 3 3 3 2 2 2 1 1 0 2 2 2 2 3 4 4 4 4 5 5
5 5 5 4 4 3 3 3 2 2 2 1 1 2 2 2 2 2 3 3 3 4 4 4 4 3 4 3 2 3 2 1 2 3 2 2 3 3 3 4 4 3 4
6 5 5 4 4 3 3 3 3 2 2 2 2 2 3 3 3 3 4 4 5 5 5 5 5 5 5 4 4 4 3 3 2 3 3 2 2 2 2 2 3 3 3
6 5 5 4 4 4 4 3 3 3 3 3 3 3 3 3 4 4 5 6 6 6 6 6 5 5 5 5 4 4 3 4 4 4 3 2 2 1 1 1 1 2 2
6 5 5 5 4 4 4 4 4 4 4 4 4 4 4 3 3 5 6 6 7 7 7 6 6 7 7 5 4 4 4 3 3 3 3 2 2 1 1 1 2 2 1
7 6 6 5 5 5 4 4 4 4 4 4 4 4 4 3 6 7 6 6 6 7 7 6 7 7 9 10 9 8 6 3 3 2 2 2 2 1 1 1 2 3 1
7 7 6 6 6 5 5 5 4 4 4 4 4 4 4 6 8 8 8 6 6 5 5 5 4 5 6 6 7 8 8 8 5 2 2 2 2 1 0 1 2 3 3
8 7 7 7 6 6 5 5 5 4 4 4 4 4 5 6 8 9 9 6 6 5 5 5 4 4 4 4 4 4 4 5 4 2 2 2 1 1 0 1 2 4 4
9 8 8 8 7 7 6 6 5 5 4 4 4 4 5 6 8 9 7 5 5 5 4 3 3 3 5 4 3 3 3 4 4 4 4 3 3 2 2 2 2 3 3
9 8 8 8 8 7 7 6 5 5 5 4 4 4 4 5 7 8 6 3 4 4 4 3 2 2 4 3 2 3 2 2 2 2 2 2 1 1 1 2 2 2 3
8 8 8 8 7 7 6 6 6 6 5 5 5 4 4 4 7 8 7 3 3 4 3 3 2 2 3 3 2 2 1 1 2 2 2 2 2 1 1 1 1 2 3
8 8 8 8 7 6 7 6 6 7 6 6 5 5 4 4 4 6 7 5 4 3 3 3 3 3 3 3 3 2 2 2 2 2 2 2 2 2 1 2 3 3 4
8 8 8 8 7 7 8 8 7 6 6 5 5 5 4 4 5 7 8 8 7 4 2 3 4 4 4 4 4 3 3 3 3 3 3 2 2 2 2 3 3 4 6
9 8 8 8 7 7 6 6 6 7 6 6 6 6 5 5 5 5 5 6 7 5 4 4 5 4 4 4 4 4 3 3 3 4 3 2 2 3 3 3 3 3 4
8 8 7 7 7 7 7 6 8 7 7 7 6 6 6 6 8 10 7 6 5 5 4 4 4 4 5 4 4 4 4 4 4 4 3 3 3 4 4 3 3 4 4
7 7 6 6 6 6 6 5 9 8 11 12 10 8 6 8 8 12 13 12 11 10 7 5 5 5 5 5 5 5 5 5 4 4 4 4 4 4 4 4 4 5 6
8 7 6 6 6 7 6 6 6 7 11 13 14 14 12 11 12 12 13 13 13 12 8 6 6 6 6 5 5 5 5 5 4 4 5 5 5 5 5 5 5 5 6
8 8 7 6 6 7 7 7 6 6 6 6 10 15 15 15 14 13 13 11 9 10 8 7 7 6 6 6 6 6 5 5 5 5 6 5 5 5 6 6 6 7 6
7 6 6 6 6 6 6 6 6 7 6 6 5 7 13 14 14 14 13 9 8 8 8 8 7 7 6 6 6 6 6 6 6 6 6 6 6 6 6 6 6 9 8
6 8 7 6 6 6 6 6 6 7 7 7 7 7 7 8 8 9 10 9 9 8 8 8 7 7 7 7 6 6 6 7 7 7 7 6 6 6 7 8 7 7 7
5 6 10 7 6 6 6 7 7 7 7 7 7 8 11 8 8 9 9 9 9 9 9 8 8 7 7 7 7 8 9 7 7 7 7 7 7 7 7 7 8 8 8
4 4 5 6 6 6 6 7 7 7 8 8 7 7 14 10 8 8 8 9 9 8 8 8 7 7 7 8 8 8 8 8 8 7 7 7 7 7 7 7 8 8 8
3 4 5 5 5 8 8 7 7 7 8 8 7 6 7 8 8 8 8 8 8 8 7 7 8 7 7 7 8 8 9 9 8 8 8 7 7 7 8 8 10 10 9
4 5 5 5 5 6 6 7 7 7 8 8 7 7 8 8 8 9 9 7 7 7 7 8 9 10 11 9 8 8 8 8 8 7 10 9 8 8 8 8 10 11 11
4 4 5 5 5 5 6 6 6 7 7 7 7 7 7 8 8 8 8 7 8 8 9 9 8 9 12 13 11 9 12 15 13 9 8 9 10 10 10 11 10 10 11
4 4 4 4 5 5 5 6 6 7 7 7 7 7 7 7 7 7 7 7 7 8 8 8 10 11 11 11 13 14 16 17 17 17 11 9 10 10 11 10 12 12 12
Wind_Direction
144 139 138 132 128 134 136 134 133 130 133 146 139 130 110 90 91 122 121 123 118 101 90 97 89 80 84 72 71 83 76 183 169 117 93 59 49 41 40 39 33 33 38
142 139 133 129 132 133 127 120 119 119 109 103 107 108 94 85 92 115 113 109 114 110 103 101 95 91 83 72 77 81 75 57 139 140 115 81 62 44 39 42 36 30 31
147 145 141 141 141 136 129 124 120 117 111 104 108 106 101 97 97 100 106 102 98 95 96 99 99 99 90 80 77 79 76 73 82 123 118 103 83 51 44 48 42 28 26
154 154 152 148 144 138 132 129 123 120 117 109 104 102 102 101 104 107 108 105 99 92 86 86 86 90 95 94 84 82 87 92 98 111 117 116 103 68 18 10 15 19 11
161 160 156 148 143 143 139 134 130 124 118 116 114 111 112 109 113 119 115 112 108 101 92 85 82 84 83 80 81 84 90 100 108 115 123 128 122 117 49 9 336 328 24
169 166 157 155 153 152 148 145 140 134 130 127 124 124 119 110 120 121 120 115 112 111 105 96 91 86 87 85 80 72 65 83 107 120 130 138 131 105 52 356 336 325 321
173 168 166 165 162 160 157 155 150 144 138 132 127 124 119 121 128 125 121 117 114 112 114 110 98 91 90 93 89 85 75 64 57 82 130 133 133 109 8 319 348 325 315
175 174 174 172 168 165 165 163 157 149 145 137 131 127 120 122 128 127 124 116 113 114 115 117 120 117 106 112 110 97 88 78 69 68 89 91 77 79 275 286 297 290 283
182 181 179 176 173 173 173 167 159 153 147 144 138 139 134 133 138 138 137 129 126 123 119 122 129 127 124 132 133 127 121 107 85 69 59 66 58 20 322 274 288 299 295
188 183 179 179 179 180 178 168 160 156 153 151 145 150 151 150 152 155 157 148 146 143 145 142 141 147 146 163 169 168 172 148 151 156 163 162 182 137 263 277 282 280 288
177 175 177 181 183 179 172 167 161 158 157 161 159 164 168 168 167 171 176 178 168 166 170 175 166 170 178 179 203 207 198 205 211 225 232 223 224 226 239 271 275 258 265
170 174 178 180 177 173 170 166 167 165 168 172 174 177 182 184 191 188 190 194 187 184 187 188 184 199 213 203 211 208 199 214 233 237 244 243 245 250 262 279 276 268 261
172 177 178 179 179 176 177 173 172 177 182 183 187 192 191 194 199 205 202 197 195 200 195 197 205 208 210 214 216 211 209 227 238 241 244 245 252 268 269 264 258 255 259
179 180 179 181 181 181 183 183 184 187 191 192 196 200 197 198 200 200 202 201 200 202 199 199 209 210 221 228 216 215 229 242 248 251 253 251 243 241 248 258 270 279 280
184 184 184 187 186 186 191 196 199 203 202 199 202 201 200 206 208 205 200 202 200 198 191 200 209 211 216 217 221 226 226 226 232 240 243 245 245 248 252 254 258 264 263
187 190 189 189 190 190 192 200 214 216 216 218 217 211 216 223 212 211 214 215 212 205 204 218 221 222 226 227 226 226 225 226 227 230 236 243 247 250 255 253 252 256 264
197 193 191 193 193 193 195 198 201 213 221 225 224 221 222 221 220 216 215 215 215 211 220 227 229 228 228 229 231 231 230 225 219 226 234 238 241 245 249 253 253 256 262
205 201 197 199 198 198 199 201 203 203 204 215 222 225 225 225 222 219 216 212 217 218 225 230 230 229 229 229 228 228 229 224 219 225 230 234 236 240 245 250 252 255 263
207 206 202 201 200 201 200 200 204 209 214 213 206 217 222 223 223 221 215 217 220 221 223 228 230 229 228 227 227 226 225 226 225 225 230 232 231 235 243 247 252 257 259
215 211 203 202 201 202 201 202 206 210 214 215 216 212 200 203 211 214 214 218 224 227 226 227 227 226 225 224 223 222 223 225 225 226 230 231 230 232 240 246 249 254 256
218 213 208 209 208 206 205 207 209 212 216 220 222 215 203 205 213 215 215 218 222 226 226 226 226 223 222 221 220 221 223 227 226 226 228 229 229 232 237 242 247 249 255
219 217 213 214 211 210 212 213 213 216 220 225 227 221 219 219 222 223 222 223 224 225 225 224 225 223 219 216 215 218 222 225 225 223 226 227 227 232 237 240 244 249 252
227 225 223 222 217 218 218 217 217 219 222 224 224 219 216 220 224 226 228 227 225 224 223 222 226 226 222 218 217 217 221 224 223 221 223 226 228 232 234 238 242 247 250
236 233 232 229 225 223 223 222 221 223 224 225 224 224 223 224 227 229 231 230 228 227 224 222 226 228 225 221 221 220 225 227 223 221 222 227 231 235 236 240 244 246 250
253 244 239 235 232 232 232 231 229 229 229 227 227 228 228 228 230 232 232 230 229 230 228 226 227 230 230 228 226 224 228 230 227 223 220 224 231 234 237 242 244 249 250
264 258 253 247 242 239 237 236 235 234 234 233 232 233 232 232 232 233 232 231 230 231 232 231 230 231 232 232 232 233 235 237 236 233 228 230 233 236 237 242 246 248 253